Regional Weather Roundup
Issued by NWS

Home | Current Version | Previous Version | Text Only | Print | Product List | Glossary On
Versions: 1 2 3 4 5 6 7 8 9 10 11 12 13 14 15 16 17 18 19 20 21 22 23 24 25 26 27 28 29 30 31 32 33 34 35 36 37 38 39 40 41 42 43 44 45 46 47 48 49 50
000
ASUS43 KDTX 262310
RWRMI
MICHIGAN HOURLY REGIONAL WEATHER ROUNDUP
NATIONAL WEATHER SERVICE DETROIT/PONTIAC MI
700 PM EDT THU APR 26 2018

NOTE: "FAIR" INDICATES FEW OR NO CLOUDS BELOW 12,000 FEET WITH NO
SIGNIFICANT WEATHER AND/OR OBSTRUCTION TO VISIBILITY.

MIZ047>049-052>055-059>063-066>070-074>076-081>083-270000-
SOUTHEAST LOWER MICHIGAN

CITY           SKY/WX    TMP DP  RH WIND       PRES   REMARKS
ADRIAN         FAIR      62  34  35 W6        29.85F
ALMA           FAIR      60  30  32 W15G23    29.84S
ANN ARBOR      FAIR      62  34  35 W8        29.84S
BAD AXE        FAIR      60   2  10 SW3       29.84F
CARO           FAIR      60  23  24 W5        29.83F
DETROIT CITY   FAIR      60  38  43 S10       29.83F
DETROIT        FAIR      61  39  44 VRB6      29.84F
FLINT          FAIR      61  26  26 W8        29.83F
GROSSE ILE     FAIR      51  41  68 S7        29.85S
HILLSDALE      FAIR      59  30  33 W3        29.85S
HOWELL         FAIR      61  23  23 NW6       29.83F

CITY           SKY/WX    TMP DP  RH WIND       PRES   REMARKS
JACKSON        FAIR      63  26  24 W8        29.84F
LAMBERTVILLE   FAIR      63  28  26 NW3       29.85S
LANSING        FAIR      62  30  29 W6        29.84F
LAPEER         FAIR      59  20  21 W5        29.84F
MASON          FAIR      63  21  20 W3        29.84F
MONROE         FAIR      57  39  52 S8        29.85S
MT. CLEMENS    MOSUNNY   57  39  51 S6        29.85F
PONTIAC        PTSUNNY   62  26  25 W8        29.82F
PORT HOPE        N/A     48  38  68 SE9       29.82F
PORT HURON     FAIR      59  32  36 S3        29.84F
TRI CITIES     FAIR      62  29  28 W9        29.82F
MIDLAND        FAIR      62  32  32 W3        29.81F
TROY           FAIR      64  23  21 NW6       29.85S
SAGINAW HB     FAIR      63  28  27 SW5       29.82F
$$
MIZ043>046-050>051-056>058-064>065-071>073-077>080-270000-
SOUTHWEST LOWER MICHIGAN

CITY           SKY/WX    TMP DP  RH WIND       PRES   REMARKS
BATTLE CREEK   FAIR      61  33  35 NW14      29.85F
BENTON HARBOR  FAIR      60  21  22 CALM      29.87F
BIG RAPIDS     FAIR      57  19  22 SW10      29.83F
COLDWATER      FAIR      63  27  26 NW5       29.85S
FREMONT        FAIR      55  16  21 SW6       29.85S
HOLLAND        FAIR      56  25  30 S6        29.86F
GRAND RAPIDS   PTSUNNY   58  26  29 W9        29.86F
IONIA          FAIR      60  24  25 W13G20    29.84S
KALAMAZOO      FAIR      60  31  33 NW13      29.87S
LUDINGTON      FAIR      55  32  41 S8        29.83S
MARSHALL       FAIR      62  25  24 W5        29.84F
MOUNT PLEASANT FAIR      62  31  31 W10       29.82F
MUSKEGON       PTSUNNY   55  28  35 SW6       29.86F
SOUTH HAVEN    FAIR      57  19  22 CALM      29.87F
$$
MIZ016>042-270000-
NORTHERN LOWER MICHIGAN

CITY           SKY/WX    TMP DP  RH WIND       PRES   REMARKS
ALPENA         FAIR      51  35  54 E7        29.81F
BEAVER ISLAND  FAIR      52  30  43 SW12      29.80S
BELLAIRE       FAIR      60  23  24 W9        29.81S
CADILLAC       FAIR      56  20  24 W8        29.82R
CHARLEVOIX     FAIR      57  28  32 SW9       29.83F
FRANKFORT      FAIR      53  32  44 SW7       29.82F
GAYLORD        FAIR      56  24  29 W9        29.80S
GRAYLING       FAIR      60  23  24 W8        29.78F
HARBOR SPRINGS FAIR      53  27  37 SW5       29.81S
HOUGHTON LAKE  FAIR      59  26  28 W9        29.80F
MANISTEE       FAIR      58  30  34 S9        29.82S
OSCODA         FAIR      55  24  29 S9        29.80F
PELLSTON       FAIR      57  26  30 W8        29.81S
ROGERS CITY    FAIR      43  33  68 CALM      29.82F
TRAVERSE CITY  CLOUDY    61  26  26 W12       29.80R
$$
MIZ007>008-015-270000-
EASTERN UPPER MICHIGAN

CITY           SKY/WX    TMP DP  RH WIND       PRES   REMARKS
KINROSS        FAIR      54  30  40 SW9       29.79F
MACKINAC ISLAN FAIR      48  31  51 SW9G17    29.80F
NEWBERRY       FAIR      47  33  57 S10       29.78S
MUNISING         N/A     37  34  89 NW14      29.86R WCI  28
$$
MIZ004>006-011>014-085-270000-
CENTRAL UPPER MICHIGAN

CITY           SKY/WX    TMP DP  RH WIND       PRES   REMARKS
MANISTIQUE     FAIR      40  37  88 SW8       29.80R
ESCANABA       CLOUDY    51  32  48 VRB3      29.77R
MENOMINEE      FAIR      65  33  30 SW6       29.75F
SAWYER-GWINN   CLOUDY    41  32  70 N21G28    29.83R
$$
MIZ001>003-009>011-084-270000-
WESTERN UPPER MICHIGAN

CITY           SKY/WX    TMP DP  RH WIND       PRES   REMARKS
IRON MOUNTAIN  CLOUDY    60  31  33 N22G28    29.75R
HOUGHTON       CLOUDY    41  33  73 N8        29.86R
COPPER HARBOR    N/A     40  32  73 N7        29.86R
IRONWOOD       PTSUNNY   45  35  68 N5        29.89R
$$

ABBREVIATIONS USED IN REMARKS
   TC - TEMPERATURE IN CELSIUS
  WCI - WIND CHILL INDEX
   HX - HEAT INDEX
  VSB - VISIBILITY




USA.gov is the U.S. government's official web portal to all federal, state and local government web resources and services.